KC5DAQ-25 Weather Reports


time (UTC)temp
C
wind
direction
speed
KPH
gust
KPH
rain 1hr
cm
rain 24hr
cm
rain mn
cm
humidity
%
barometer
mb
20260504192602 26 197 1.6 6.4 0.00 0.00 0.00 67 1004.8
20260504192504 26 197 1.6 6.4 0.00 0.00 0.00 67 1004.8
20260504192402 26 266 1.6 6.4 0.00 0.00 0.00 67 1004.8
20260504192304 26 128 1.6 6.4 0.00 0.00 0.00 67 1004.8
20260504192202 26 78 1.6 6.4 0.00 0.00 0.00 69 1004.8
20260504192103 26 254 1.6 4.8 0.00 0.00 0.00 69 1004.8
20260504192003 26 319 1.6 4.8 0.00 0.00 0.00 69 1004.8
20260504191904 26 147 0.0 4.8 0.00 0.00 0.00 67 1004.9
20260504191803 26 148 1.6 4.8 0.00 0.00 0.00 67 1004.9
20260504191704 26 334 1.6 4.8 0.00 0.00 0.00 70 1004.9
20260504191604 26 275 1.6 4.8 0.00 0.00 0.00 70 1004.9
20260504191505 25 27 0.0 4.8 0.00 0.00 0.00 68 1005.0
20260504191404 25 28 0.0 4.8 0.00 0.00 0.00 68 1004.9
20260504191303 25 148 1.6 4.8 0.00 0.00 0.00 68 1005.0
20260504191134 25 149 3.2 4.8 0.00 0.00 0.00 68 1005.0
20260504191034 25 149 1.6 4.8 0.00 0.00 0.00 68 1005.0
20260504190933 25 109 0.0 4.8 0.00 0.00 0.00 68 1005.1
20260504190833 25 109 1.6 4.8 0.00 0.00 0.00 68 1005.1
20260504190733 25 37 1.6 4.8 0.00 0.00 0.00 68 1005.2
20260504190633 25 137 1.6 4.8 0.00 0.00 0.00 67 1005.1
20260504190533 26 125 3.2 4.8 0.00 0.00 0.00 66 1005.2
20260504190434 26 223 1.6 4.8 0.00 0.00 0.00 66 1005.2
20260504190335 26 169 1.6 3.2 0.00 0.00 0.00 66 1005.3
20260504190233 26 169 0.0 3.2 0.00 0.00 0.00 68 1005.2
20260504190134 26 169 0.0 3.2 0.00 0.00 0.00 66 1005.3
20260504190035 26 169 0.0 3.2 0.00 0.00 0.00 66 1005.3
20260504185933 26 169 0.0 3.2 0.00 0.00 0.00 66 1005.3
20260504185833 26 169 1.6 3.2 0.00 0.00 0.00 68 1005.3
20260504185735 26 169 1.6 3.2 0.00 0.00 0.00 68 1005.3
20260504185634 26 169 0.0 3.2 0.00 0.00 0.00 68 1005.4
20260504185533 26 168 1.6 3.2 0.00 0.00 0.00 65 1005.3
20260504185433 26 169 1.6 3.2 0.00 0.00 0.00 69 1005.3
20260504185334 26 114 1.6 3.2 0.00 0.00 0.00 69 1005.4
20260504185233 26 114 1.6 3.2 0.00 0.00 0.00 69 1005.4
20260504185134 26 117 1.6 4.8 0.00 0.00 0.00 69 1005.3
20260504185033 26 21 1.6 4.8 0.00 0.00 0.00 69 1005.4
20260504184933 26 337 0.0 4.8 0.00 0.00 0.00 70 1005.3
20260504184835 26 337 0.0 4.8 0.00 0.00 0.00 66 1005.3
20260504184734 25 338 1.6 4.8 0.00 0.00 0.00 66 1005.3
20260504184633 26 176 1.6 4.8 0.00 0.00 0.00 66 1005.4
20260504184534 26 196 1.6 4.8 0.00 0.00 0.00 66 1005.4
20260504184435 26 327 1.6 4.8 0.00 0.00 0.00 65 1005.4
20260504184335 26 327 1.6 4.8 0.00 0.00 0.00 65 1005.4
20260504184233 26 354 1.6 4.8 0.00 0.00 0.00 66 1005.4
20260504184135 26 106 0.0 4.8 0.00 0.00 0.00 68 1005.4
20260504184033 26 51 0.0 4.8 0.00 0.00 0.00 67 1005.5
20260504183933 26 51 1.6 4.8 0.00 0.00 0.00 67 1005.5
20260504183833 26 68 3.2 6.4 0.00 0.00 0.00 65 1005.5
20260504183733 26 34 3.2 6.4 0.00 0.00 0.00 67 1005.6
20260504183632 26 144 3.2 6.4 0.00 0.00 0.00 66 1005.5
20260504183533 26 266 3.2 6.4 0.00 0.00 0.00 65 1005.5
20260504183433 26 272 1.6 6.4 0.00 0.00 0.00 65 1005.6
20260504183333 26 305 1.6 8.0 0.00 0.00 0.00 65 1005.5
20260504183232 26 274 1.6 8.0 0.00 0.00 0.00 65 1005.6
20260504183132 26 350 1.6 8.0 0.00 0.00 0.00 65 1005.6
20260504183033 26 350 3.2 8.0 0.00 0.00 0.00 64 1005.6
20260504182933 26 324 1.6 8.0 0.00 0.00 0.00 64 1005.6
20260504182833 26 276 1.6 8.0 0.00 0.00 0.00 64 1005.6
20260504182733 26 231 1.6 8.0 0.00 0.00 0.00 64 1005.6
20260504182633 26 120 1.6 8.0 0.00 0.00 0.00 66 1005.6
20260504182533 26 340 3.2 8.0 0.00 0.00 0.00 67 1005.6
20260504182433 26 130 3.2 8.0 0.00 0.00 0.00 67 1005.6
20260504182332 26 165 3.2 6.4 0.00 0.00 0.00 68 1005.7
20260504182232 26 165 3.2 6.4 0.00 0.00 0.00 66 1005.6
20260504182133 26 334 3.2 6.4 0.00 0.00 0.00 66 1005.6
20260504182032 26 257 3.2 6.4 0.00 0.00 0.00 65 1005.6
20260504181933 26 257 3.2 6.4 0.00 0.00 0.00 65 1005.7
20260504181832 26 138 1.6 6.4 0.00 0.00 0.00 65 1005.7
20260504181730 25 302 0.0 6.4 0.00 0.00 0.00 65 1005.8
20260504181631 26 302 0.0 6.4 0.00 0.00 0.00 65 1005.8
20260504181531 26 300 1.6 6.4 0.00 0.00 0.00 65 1005.7
20260504181431 26 300 3.2 6.4 0.00 0.00 0.00 65 1005.7
20260504181334 26 175 1.6 4.8 0.00 0.00 0.00 65 1005.7
20260504181232 26 175 1.6 4.8 0.00 0.00 0.00 65 1005.6
20260504181133 26 102 1.6 4.8 0.00 0.00 0.00 65 1005.6
20260504181030 26 235 1.6 4.8 0.00 0.00 0.00 65 1005.5
20260504180931 26 258 1.6 4.8 0.00 0.00 0.00 65 1005.6
20260504180833 26 24 1.6 4.8 0.00 0.00 0.00 65 1005.6
20260504180718 26 34 3.2 4.8 0.00 0.00 0.00 64 1005.6
20260504180618 26 13 3.2 4.8 0.00 0.00 0.00 64 1005.6
20260504180515 26 11 3.2 4.8 0.00 0.00 0.00 67 1005.7
20260504180411 26 305 1.6 4.8 0.00 0.00 0.00 67 1005.8
20260504180307 26 317 1.6 4.8 0.00 0.00 0.00 66 1005.8
20260504180204 26 217 1.6 4.8 0.00 0.00 0.00 66 1005.8
20260504180104 26 217 1.6 4.8 0.00 0.00 0.00 64 1005.8
20260504180003 26 176 1.6 6.4 0.00 0.00 0.00 64 1005.9
20260504175902 26 3 0.0 6.4 0.00 0.00 0.00 64 1005.9
20260504175803 26 7 1.6 6.4 0.00 0.00 0.00 64 1005.9
20260504175702 26 226 1.6 6.4 0.00 0.00 0.00 64 1006.0
20260504175607 26 224 3.2 6.4 0.00 0.00 0.00 66 1006.0
20260504175504 26 210 1.6 6.4 0.00 0.00 0.00 66 1006.0
20260504175402 26 188 1.6 6.4 0.00 0.00 0.00 66 1005.9
20260504175304 26 216 1.6 6.4 0.00 0.00 0.00 63 1006.0
20260504175202 26 298 3.2 6.4 0.00 0.00 0.00 63 1006.1
20260504175101 26 302 3.2 6.4 0.00 0.00 0.00 65 1006.0
20260504175004 26 355 3.2 6.4 0.00 0.00 0.00 65 1006.0
20260504174904 26 133 3.2 6.4 0.00 0.00 0.00 64 1006.1
20260504174804 26 118 3.2 6.4 0.00 0.00 0.00 64 1006.0
20260504174713 26 159 1.6 6.4 0.00 0.00 0.00 64 1006.0
20260504174604 26 227 1.6 6.4 0.00 0.00 0.00 64 1006.0
20260504174504 26 275 1.6 6.4 0.00 0.00 0.00 65 1006.0
20260504174403 26 299 3.2 6.4 0.00 0.00 0.00 65 1006.0
20260504174303 26 243 1.6 6.4 0.00 0.00 0.00 65 1006.1
20260504174204 26 200 3.2 6.4 0.00 0.00 0.00 65 1006.1
20260504174103 26 202 4.8 6.4 0.00 0.00 0.00 65 1006.0
20260504174003 26 127 3.2 9.7 0.00 0.00 0.00 66 1006.1
20260504173902 26 10 1.6 9.7 0.00 0.00 0.00 66 1006.0
20260504173803 26 72 1.6 9.7 0.00 0.00 0.00 66 1006.0
20260504173704 26 72 3.2 9.7 0.00 0.00 0.00 66 1006.0
20260504173604 26 219 3.2 9.7 0.00 0.00 0.00 66 1006.1
20260504173505 26 175 1.6 9.7 0.00 0.00 0.00 66 1006.0
20260504173404 26 295 0.0 9.7 0.00 0.00 0.00 66 1006.1
20260504173302 26 281 1.6 9.7 0.00 0.00 0.00 66 1006.0
20260504173202 26 281 3.2 9.7 0.00 0.00 0.00 66 1006.1
20260504173104 26 324 3.2 9.7 0.00 0.00 0.00 66 1006.1
20260504173003 26 106 1.6 4.8 0.00 0.00 0.00 66 1006.1
20260504172903 26 104 1.6 6.4 0.00 0.00 0.00 67 1006.1
20260504172804 26 106 1.6 6.4 0.00 0.00 0.00 67 1006.2
20260504172703 26 103 1.6 6.4 0.00 0.00 0.00 67 1006.2
20260504172604 26 213 1.6 6.4 0.00 0.00 0.00 67 1006.2
20260504172454 26 310 3.2 6.4 0.00 0.00 0.00 67 1006.2
20260504172350 26 231 3.2 6.4 0.00 0.00 0.00 66 1006.3
20260504172246 26 138 1.6 6.4 0.00 0.00 0.00 65 1006.2
20260504172144 25 109 3.2 6.4 0.00 0.00 0.00 65 1006.2
20260504172037 25 78 3.2 6.4 0.00 0.00 0.00 65 1006.1
20260504171939 25 131 3.2 6.4 0.00 0.00 0.00 65 1006.2
20260504171834 25 116 3.2 4.8 0.00 0.00 0.00 65 1006.3
20260504171732 25 109 3.2 4.8 0.00 0.00 0.00 67 1006.3
20260504171632 25 87 1.6 4.8 0.00 0.00 0.00 67 1006.4
20260504171531 25 72 1.6 4.8 0.00 0.00 0.00 66 1006.4
20260504171431 25 348 1.6 4.8 0.00 0.00 0.00 67 1006.3
20260504171331 25 233 0.0 6.4 0.00 0.00 0.00 67 1006.4
20260504171235 25 231 1.6 6.4 0.00 0.00 0.00 67 1006.5
20260504171131 25 231 1.6 6.4 0.00 0.00 0.00 68 1006.5
20260504171031 25 120 0.0 6.4 0.00 0.00 0.00 66 1006.5
20260504170932 25 117 1.6 6.4 0.00 0.00 0.00 66 1006.5
20260504170832 25 120 1.6 6.4 0.00 0.00 0.00 66 1006.5
20260504170727 25 117 3.2 6.4 0.00 0.00 0.00 68 1006.5
20260504170624 25 16 3.2 6.4 0.00 0.00 0.00 68 1006.6
20260504170515 25 144 1.6 6.4 0.00 0.00 0.00 69 1006.6
20260504170408 25 97 1.6 6.4 0.00 0.00 0.00 69 1006.6
20260504170303 25 245 1.6 6.4 0.00 0.00 0.00 69 1006.7
20260504170204 25 155 1.6 6.4 0.00 0.00 0.00 68 1006.7
20260504170104 25 155 3.2 6.4 0.00 0.00 0.00 66 1006.6
20260504160431 24 296 1.6 9.7 0.00 0.00 0.00 69 1007.3
20260504160331 24 55 1.6 9.7 0.00 0.00 0.00 71 1007.3
20260504160231 24 56 1.6 9.7 0.00 0.00 0.00 71 1007.3
20260504160131 23 107 1.6 9.7 0.00 0.00 0.00 69 1007.3
20260504151128 23 71 1.6 4.8 0.00 0.00 0.00 73 1007.4
20260504151030 22 0 0.0 4.8 0.00 0.00 0.00 72 1007.4
20260504150930 22 0 1.6 4.8 0.00 0.00 0.00 72 1007.4
20260504150830 22 0 1.6 4.8 0.00 0.00 0.00 72 1007.4
20260504150731 22 282 1.6 4.8 0.00 0.00 0.00 73 1007.4
20260504150631 22 0 1.6 4.8 0.00 0.00 0.00 73 1007.4
20260504150531 22 307 1.6 4.8 0.00 0.00 0.00 73 1007.4
20260504150429 22 307 3.2 4.8 0.00 0.00 0.00 73 1007.4
20260504150331 22 179 1.6 4.8 0.00 0.00 0.00 73 1007.4
20260504150224 22 158 1.6 4.8 0.00 0.00 0.00 74 1007.4
20260504150127 22 192 1.6 4.8 0.00 0.00 0.00 74 1007.5
20260504141331 16 0 0.0 1.6 0.00 0.00 0.00 88 1007.4
20260504141231 16 89 0.0 1.6 0.00 0.00 0.00 88 1007.5
20260504141132 16 0 0.0 1.6 0.00 0.00 0.00 88 1007.4
20260504141031 16 0 0.0 1.6 0.00 0.00 0.00 88 1007.4
20260504140931 16 0 0.0 1.6 0.00 0.00 0.00 88 1007.4
20260504140833 16 0 0.0 3.2 0.00 0.00 0.00 88 1007.5
20260504140730 16 0 0.0 3.2 0.00 0.00 0.00 88 1007.4
20260504140631 16 0 0.0 3.2 0.00 0.00 0.00 88 1007.4
20260504140531 16 0 0.0 3.2 0.00 0.00 0.00 88 1007.5
20260504140431 16 0 0.0 3.2 0.00 0.00 0.00 88 1007.4
20260504140332 16 0 0.0 3.2 0.00 0.00 0.00 88 1007.4
20260504140233 16 0 0.0 3.2 0.00 0.00 0.00 88 1007.5
20260504140131 16 0 0.0 3.2 0.00 0.00 0.00 88 1007.5
20260504130735 13 141 0.0 0.0 0.00 0.00 0.00 87 1007.5
20260504130627 13 141 0.0 0.0 0.00 0.00 0.00 87 1007.4
20260504130526 13 141 0.0 0.0 0.00 0.00 0.00 87 1007.4
20260504130426 13 141 0.0 0.0 0.00 0.00 0.00 87 1007.3
20260504130327 13 141 0.0 0.0 0.00 0.00 0.00 87 1007.3
20260504130226 13 141 0.0 0.0 0.00 0.00 0.00 87 1007.3
20260504130125 13 141 0.0 0.0 0.00 0.00 0.00 87 1007.3
20260504120224 12 141 0.0 0.0 0.00 0.00 0.00 86 1007.2
20260504120125 12 141 0.0 0.0 0.00 0.00 0.00 86 1007.3
20260504110717 13 141 0.0 0.0 0.00 0.00 0.00 86 1006.9
20260504110617 13 141 0.0 0.0 0.00 0.00 0.00 86 1006.8
20260504110514 13 141 0.0 0.0 0.00 0.00 0.00 86 1006.8
20260504110411 13 141 0.0 0.0 0.00 0.00 0.00 86 1006.8
20260504110308 13 141 0.0 0.0 0.00 0.00 0.00 86 1006.8
20260504110203 13 141 0.0 0.0 0.00 0.00 0.00 86 1006.8
20260504110103 13 141 0.0 0.0 0.00 0.00 0.00 86 1006.9
20260504100537 13 141 0.0 0.0 0.00 0.00 0.00 85 1007.0
20260504100440 13 141 0.0 0.0 0.00 0.00 0.00 85 1007.1
20260504100333 13 141 0.0 0.0 0.00 0.00 0.00 85 1007.0
20260504100232 13 141 0.0 0.0 0.00 0.00 0.00 85 1007.1
20260504100128 13 141 0.0 0.0 0.00 0.00 0.00 85 1007.2
20260504081919 14 141 0.0 0.0 0.00 0.00 0.00 85 1007.7
20260504081820 14 141 0.0 0.0 0.00 0.00 0.00 85 1007.7
20260504081719 14 141 0.0 0.0 0.00 0.00 0.00 85 1007.7
20260504081619 14 141 0.0 0.0 0.00 0.00 0.00 85 1007.7
20260504081520 14 141 0.0 0.0 0.00 0.00 0.00 85 1007.7
20260504081419 14 141 0.0 0.0 0.00 0.00 0.00 85 1007.7
20260504081320 14 141 0.0 0.0 0.00 0.00 0.00 85 1007.7
20260504081222 14 141 0.0 0.0 0.00 0.00 0.00 85 1007.7
20260504081120 14 141 0.0 0.0 0.00 0.00 0.00 85 1007.7
20260504081019 14 141 0.0 0.0 0.00 0.00 0.00 85 1007.7
20260504080920 14 141 0.0 0.0 0.00 0.00 0.00 85 1007.7
20260504080821 14 141 0.0 0.0 0.00 0.00 0.00 85 1007.7
20260504080720 14 141 0.0 0.0 0.00 0.00 0.00 85 1007.8
20260504080620 14 141 0.0 0.0 0.00 0.00 0.00 85 1007.7
20260504080519 14 141 0.0 0.0 0.00 0.00 0.00 85 1007.7
20260504080419 14 141 0.0 0.0 0.00 0.00 0.00 85 1007.7
20260504080319 14 141 0.0 0.0 0.00 0.00 0.00 85 1007.7
20260504080218 14 141 0.0 0.0 0.00 0.00 0.00 85 1007.8
20260504080119 14 141 0.0 0.0 0.00 0.00 0.00 85 1007.7
20260504070332 15 141 0.0 0.0 0.00 0.00 0.00 84 1009.1
20260504070223 15 141 0.0 0.0 0.00 0.00 0.00 84 1009.1
20260504070121 15 141 0.0 0.0 0.00 0.00 0.00 84 1009.1
20260504060202 15 141 0.0 0.0 0.00 0.00 0.00 84 1009.4
20260504050701 15 141 0.0 0.0 0.00 0.00 0.00 81 1009.7
20260504050602 15 141 0.0 0.0 0.00 0.00 0.00 81 1009.8
20260504050502 15 141 0.0 0.0 0.00 0.00 0.00 80 1009.7
20260504050402 15 141 0.0 0.0 0.00 0.00 0.00 80 1009.8
20260504050303 15 141 0.0 0.0 0.00 0.00 0.00 80 1009.7
20260504050202 15 141 0.0 0.0 0.00 0.00 0.00 80 1009.9
20260504050002 15 141 0.0 0.0 0.00 0.00 0.00 80 1009.9
20260504045903 15 141 0.0 0.0 0.00 0.00 0.00 80 1009.9
20260504045802 15 141 0.0 0.0 0.00 0.00 0.00 80 1010.0
20260504045703 15 141 0.0 0.0 0.00 0.00 0.00 80 1009.9
20260504045602 15 141 0.0 0.0 0.00 0.00 0.00 80 1009.9
20260504045503 15 141 0.0 0.0 0.00 0.00 0.00 80 1009.9
20260504045402 15 141 0.0 0.0 0.00 0.00 0.00 79 1009.9
20260504045304 15 141 0.0 0.0 0.00 0.00 0.00 79 1009.9
20260504045204 15 141 0.0 0.0 0.00 0.00 0.00 79 1009.9
20260504045102 15 141 0.0 0.0 0.00 0.00 0.00 79 1009.9
20260504045003 15 141 0.0 0.0 0.00 0.00 0.00 79 1009.9
20260504044902 15 141 0.0 0.0 0.00 0.00 0.00 79 1009.9
20260504044803 15 141 0.0 0.0 0.00 0.00 0.00 79 1009.8
20260504044702 15 141 0.0 0.0 0.00 0.00 0.00 79 1009.8
20260504044603 15 141 0.0 0.0 0.00 0.00 0.00 79 1009.8
20260504044504 15 141 0.0 0.0 0.00 0.00 0.00 79 1009.9
20260504044402 15 141 0.0 0.0 0.00 0.00 0.00 79 1009.9
20260504044303 15 141 0.0 0.0 0.00 0.00 0.00 79 1009.9
20260504044202 15 141 0.0 0.0 0.00 0.00 0.00 78 1010.0
20260504044103 15 141 0.0 0.0 0.00 0.00 0.00 78 1010.0
20260504044004 16 141 0.0 0.0 0.00 0.00 0.00 78 1009.9
20260504043903 16 141 0.0 0.0 0.00 0.00 0.00 78 1010.0
20260504043802 16 141 0.0 0.0 0.00 0.00 0.00 78 1010.0
20260504043700 16 141 0.0 0.0 0.00 0.00 0.00 79 1009.9
20260504043603 16 141 0.0 0.0 0.00 0.00 0.00 79 1010.0
20260504043500 16 141 0.0 0.0 0.00 0.00 0.00 79 1010.1
20260504043359 16 141 0.0 0.0 0.00 0.00 0.00 78 1010.1
20260504043258 16 141 0.0 0.0 0.00 0.00 0.00 78 1010.1
20260504043155 16 141 0.0 0.0 0.00 0.00 0.00 78 1010.1
20260504043052 16 141 0.0 0.0 0.00 0.00 0.00 79 1010.0
20260504042942 16 141 0.0 0.0 0.00 0.00 0.00 79 1010.1
20260504042835 16 141 0.0 0.0 0.00 0.00 0.00 79 1010.1
20260504042732 16 141 0.0 0.0 0.00 0.00 0.00 79 1010.1
20260504042631 16 141 0.0 0.0 0.00 0.00 0.00 79 1010.0
20260504042531 16 141 0.0 0.0 0.00 0.00 0.00 79 1010.1
20260504042431 16 141 0.0 0.0 0.00 0.00 0.00 79 1010.1
20260504042329 16 141 0.0 0.0 0.00 0.00 0.00 79 1010.1
20260504042231 16 141 0.0 0.0 0.00 0.00 0.00 79 1010.0
20260504042129 16 141 0.0 0.0 0.00 0.00 0.00 79 1010.0
20260504042031 16 141 0.0 0.0 0.00 0.00 0.00 79 1009.9
20260504041928 16 141 0.0 0.0 0.00 0.00 0.00 79 1009.9
20260504041825 16 141 0.0 0.0 0.00 0.00 0.00 79 1010.0
20260504041715 16 141 0.0 0.0 0.00 0.00 0.00 79 1010.0
20260504041615 16 141 0.0 0.0 0.00 0.00 0.00 79 1009.9
20260504041515 16 141 0.0 0.0 0.00 0.00 0.00 78 1010.0
20260504041415 16 141 0.0 0.0 0.00 0.00 0.00 78 1009.9
20260504041313 16 141 0.0 0.0 0.00 0.00 0.00 78 1009.9
20260504041214 16 141 0.0 0.0 0.00 0.00 0.00 78 1010.0
20260504041114 16 141 0.0 0.0 0.00 0.00 0.00 78 1009.9
20260504041014 16 141 0.0 0.0 0.00 0.00 0.00 79 1010.0
20260504040914 16 141 0.0 0.0 0.00 0.00 0.00 79 1010.0
20260504040814 16 141 0.0 0.0 0.00 0.00 0.00 79 1010.0
20260504040715 16 141 0.0 0.0 0.00 0.00 0.00 79 1010.1
20260504040615 16 141 0.0 0.0 0.00 0.00 0.00 79 1010.1
20260504040514 16 141 0.0 0.0 0.00 0.00 0.00 79 1010.0
20260504040413 16 141 0.0 0.0 0.00 0.00 0.00 79 1010.1
20260504040314 16 141 0.0 0.0 0.00 0.00 0.00 79 1010.1
20260504040213 16 141 0.0 0.0 0.00 0.00 0.00 79 1010.0
20260504040117 16 141 0.0 0.0 0.00 0.00 0.00 79 1010.0
20260504040014 16 141 0.0 0.0 0.00 0.00 0.00 79 1010.1
20260504035913 16 141 0.0 0.0 0.00 0.00 0.00 79 1010.1
20260504035813 16 141 0.0 0.0 0.00 0.00 0.00 79 1010.1
20260504035713 16 141 0.0 0.0 0.00 0.00 0.00 79 1010.1
20260504035614 16 141 0.0 3.2 0.00 0.00 0.00 78 1010.1
20260504035511 16 141 0.0 3.2 0.00 0.00 0.00 78 1010.0
20260504035408 16 141 0.0 3.2 0.00 0.00 0.00 79 1010.0
20260504035310 16 141 0.0 3.2 0.00 0.00 0.00 79 1010.0
20260504035208 16 141 0.0 3.2 0.00 0.00 0.00 78 1010.1
20260504035105 16 141 0.0 3.2 0.00 0.00 0.00 78 1010.1
20260504035005 16 141 0.0 3.2 0.00 0.00 0.00 78 1010.1
20260504034904 16 141 0.0 3.2 0.00 0.00 0.00 78 1010.1
20260504034803 16 141 0.0 3.2 0.00 0.00 0.00 78 1010.1
20260504034702 16 141 0.0 3.2 0.00 0.00 0.00 78 1010.1
20260504034603 16 117 0.0 0.0 0.00 0.00 0.00 78 1010.1
20260504034502 16 117 0.0 0.0 0.00 0.00 0.00 78 1010.1
20260504034403 16 117 0.0 0.0 0.00 0.00 0.00 78 1010.0
20260504034304 16 117 0.0 0.0 0.00 0.00 0.00 78 1010.0
20260504034200 16 117 0.0 0.0 0.00 0.00 0.00 77 1010.0
20260504034058 16 117 0.0 0.0 0.00 0.00 0.00 77 1009.9
20260504033947 16 117 0.0 0.0 0.00 0.00 0.00 77 1009.9
20260504033841 16 117 0.0 0.0 0.00 0.00 0.00 78 1009.9
20260504033743 16 117 0.0 0.0 0.00 0.00 0.00 78 1009.9
20260504033637 16 117 0.0 0.0 0.00 0.00 0.00 78 1009.9
20260504033533 16 117 0.0 0.0 0.00 0.00 0.00 78 1010.0
20260504033431 16 117 0.0 0.0 0.00 0.00 0.00 77 1009.9
20260504033333 16 117 0.0 0.0 0.00 0.00 0.00 77 1009.9
20260504033217 16 117 0.0 0.0 0.00 0.00 0.00 77 1009.9
20260504033114 16 117 0.0 0.0 0.00 0.00 0.00 78 1009.9
20260504033013 16 117 0.0 0.0 0.00 0.00 0.00 77 1009.9
20260504032914 16 117 0.0 0.0 0.00 0.00 0.00 77 1010.0
20260504032814 16 117 0.0 0.0 0.00 0.00 0.00 77 1010.0
20260504032714 16 117 0.0 0.0 0.00 0.00 0.00 77 1010.0
20260504032613 16 117 0.0 0.0 0.00 0.00 0.00 77 1010.0
20260504032514 16 117 0.0 0.0 0.00 0.00 0.00 77 1009.9
20260504032414 16 117 0.0 0.0 0.00 0.00 0.00 77 1009.9
20260504032313 16 117 0.0 0.0 0.00 0.00 0.00 76 1009.9
20260504032213 16 117 0.0 0.0 0.00 0.00 0.00 77 1009.9
20260504032112 16 117 0.0 0.0 0.00 0.00 0.00 77 1009.9
20260504032013 16 117 0.0 0.0 0.00 0.00 0.00 77 1009.9
20260504031913 16 117 0.0 0.0 0.00 0.00 0.00 76 1009.9
20260504031815 16 117 0.0 0.0 0.00 0.00 0.00 76 1009.9
20260504031714 16 117 0.0 0.0 0.00 0.00 0.00 76 1009.8
20260504031613 17 117 0.0 0.0 0.00 0.00 0.00 77 1009.8
20260504031512 17 117 0.0 0.0 0.00 0.00 0.00 77 1009.8
20260504031414 17 117 0.0 0.0 0.00 0.00 0.00 77 1009.8
20260504031313 17 117 0.0 0.0 0.00 0.00 0.00 77 1009.8
20260504031213 17 117 0.0 0.0 0.00 0.00 0.00 77 1009.8
20260504031114 17 117 0.0 0.0 0.00 0.00 0.00 77 1009.8
20260504031015 17 117 0.0 0.0 0.00 0.00 0.00 77 1009.8
20260504030915 17 117 0.0 0.0 0.00 0.00 0.00 77 1009.8
20260504030812 17 117 0.0 0.0 0.00 0.00 0.00 77 1009.7
20260504030713 17 117 0.0 0.0 0.00 0.00 0.00 77 1009.7
20260504030614 17 117 0.0 0.0 0.00 0.00 0.00 77 1009.8
20260504030512 17 117 0.0 0.0 0.00 0.00 0.00 77 1009.8
20260504030412 17 117 0.0 0.0 0.00 0.00 0.00 77 1009.8
20260504030313 17 117 0.0 0.0 0.00 0.00 0.00 77 1009.7
20260504030214 17 117 0.0 0.0 0.00 0.00 0.00 78 1009.7
20260504030105 17 117 0.0 0.0 0.00 0.00 0.00 77 1009.7
20260504030004 17 117 0.0 0.0 0.00 0.00 0.00 77 1009.7
20260504025903 17 117 0.0 0.0 0.00 0.00 0.00 77 1009.7
20260504025803 17 117 0.0 0.0 0.00 0.00 0.00 77 1009.8
20260504025704 17 117 0.0 0.0 0.00 0.00 0.00 78 1009.8
20260504025602 17 117 0.0 0.0 0.00 0.00 0.00 78 1009.7
20260504025503 17 117 0.0 0.0 0.00 0.00 0.00 78 1009.7
20260504025403 17 117 0.0 0.0 0.00 0.00 0.00 78 1009.6
20260504025304 17 117 0.0 0.0 0.00 0.00 0.00 79 1009.7
20260504025202 17 117 0.0 0.0 0.00 0.00 0.00 79 1009.7
20260504025102 17 117 0.0 0.0 0.00 0.00 0.00 79 1009.6
20260504025002 17 117 0.0 0.0 0.00 0.00 0.00 79 1009.7
20260504024903 17 117 0.0 0.0 0.00 0.00 0.00 79 1009.7
20260504024802 17 114 0.0 0.0 0.00 0.00 0.00 79 1009.7
20260504024703 17 114 0.0 0.0 0.00 0.00 0.00 79 1009.6
20260504024604 17 114 0.0 0.0 0.00 0.00 0.00 79 1009.7
20260504024503 17 114 0.0 0.0 0.00 0.00 0.00 79 1009.6
20260504024404 17 114 0.0 0.0 0.00 0.00 0.00 79 1009.6
20260504024302 17 114 0.0 0.0 0.00 0.00 0.00 79 1009.6
20260504024202 17 114 0.0 0.0 0.00 0.00 0.00 79 1009.6
20260504024104 17 114 0.0 0.0 0.00 0.00 0.00 79 1009.5
20260504024004 17 114 0.0 0.0 0.00 0.00 0.00 79 1009.5
20260504023902 17 114 0.0 0.0 0.00 0.00 0.00 79 1009.5
20260504023803 17 114 0.0 0.0 0.00 0.00 0.00 78 1009.5
20260504023704 17 114 0.0 0.0 0.00 0.00 0.00 78 1009.5
20260504023603 17 114 0.0 0.0 0.00 0.00 0.00 79 1009.5
20260504023504 17 114 0.0 0.0 0.00 0.00 0.00 78 1009.5
20260504023401 17 114 0.0 0.0 0.00 0.00 0.00 78 1009.4
20260504023303 17 114 0.0 0.0 0.00 0.00 0.00 78 1009.4
20260504023202 17 114 0.0 0.0 0.00 0.00 0.00 78 1009.4
20260504023102 17 114 0.0 0.0 0.00 0.00 0.00 78 1009.4
20260504023003 17 114 0.0 0.0 0.00 0.00 0.00 78 1009.4
20260504022904 17 114 0.0 0.0 0.00 0.00 0.00 78 1009.4
20260504022802 17 114 0.0 0.0 0.00 0.00 0.00 78 1009.4
20260504022704 17 114 0.0 0.0 0.00 0.00 0.00 78 1009.4
20260504022602 17 114 0.0 0.0 0.00 0.00 0.00 78 1009.4
20260504022502 17 114 0.0 0.0 0.00 0.00 0.00 78 1009.3
20260504022402 17 114 0.0 0.0 0.00 0.00 0.00 78 1009.4
20260504022304 17 114 0.0 0.0 0.00 0.00 0.00 78 1009.4
20260504022203 17 114 0.0 0.0 0.00 0.00 0.00 78 1009.4
20260504022103 17 114 0.0 0.0 0.00 0.00 0.00 78 1009.5
20260504022004 17 114 0.0 0.0 0.00 0.00 0.00 77 1009.5
20260504021902 17 114 0.0 1.6 0.00 0.00 0.00 77 1009.4
20260504021802 17 114 0.0 1.6 0.00 0.00 0.00 77 1009.4
20260504021704 17 114 0.0 1.6 0.00 0.00 0.00 77 1009.4
20260504021602 17 114 0.0 1.6 0.00 0.00 0.00 78 1009.4
20260504021502 17 114 0.0 1.6 0.00 0.00 0.00 78 1009.4
20260504021402 17 114 0.0 1.6 0.00 0.00 0.00 78 1009.4
20260504021303 17 114 0.0 1.6 0.00 0.00 0.00 78 1009.4
20260504021203 17 114 0.0 1.6 0.00 0.00 0.00 78 1009.4
20260504021103 17 114 0.0 1.6 0.00 0.00 0.00 77 1009.4
20260504021003 17 114 0.0 1.6 0.00 0.00 0.00 77 1009.4
20260504020902 17 114 0.0 0.0 0.00 0.00 0.00 77 1009.4
20260504020803 17 114 0.0 0.0 0.00 0.00 0.00 77 1009.4
20260504020703 17 114 0.0 0.0 0.00 0.00 0.00 78 1009.4
20260504020602 17 114 0.0 0.0 0.00 0.00 0.00 77 1009.4
20260504020504 17 114 0.0 0.0 0.00 0.00 0.00 77 1009.3
20260504020403 17 114 0.0 0.0 0.00 0.00 0.00 77 1009.3
20260504020303 17 114 0.0 0.0 0.00 0.00 0.00 77 1009.3
20260504020202 17 114 0.0 0.0 0.00 0.00 0.00 77 1009.3
20260504020103 17 114 0.0 0.0 0.00 0.00 0.00 77 1009.3
20260504020003 17 114 0.0 0.0 0.00 0.00 0.00 77 1009.3
20260504015902 17 114 0.0 0.0 0.00 0.00 0.00 77 1009.3
20260504015804 17 114 0.0 0.0 0.00 0.00 0.00 77 1009.3
20260504015702 17 114 0.0 0.0 0.00 0.00 0.00 77 1009.3
20260504015603 17 114 0.0 0.0 0.00 0.00 0.00 77 1009.3
20260504015503 17 114 0.0 0.0 0.00 0.00 0.00 77 1009.3
20260504015403 17 114 0.0 0.0 0.00 0.00 0.00 77 1009.3
20260504015304 17 114 0.0 0.0 0.00 0.00 0.00 77 1009.3
20260504015202 17 114 0.0 0.0 0.00 0.00 0.00 77 1009.2
20260504015103 17 114 0.0 0.0 0.00 0.00 0.00 77 1009.2
20260504015005 17 114 0.0 0.0 0.00 0.00 0.00 77 1009.2
20260504014903 17 114 0.0 0.0 0.00 0.00 0.00 77 1009.1
20260504014802 17 114 0.0 0.0 0.00 0.00 0.00 77 1009.1
20260504014704 17 114 0.0 0.0 0.00 0.00 0.00 77 1009.1
20260504014602 17 114 0.0 0.0 0.00 0.00 0.00 77 1009.1
20260504014502 18 114 0.0 0.0 0.00 0.00 0.00 77 1009.1
20260504014403 18 114 0.0 0.0 0.00 0.00 0.00 77 1009.0
20260504014302 17 114 0.0 0.0 0.00 0.00 0.00 76 1008.9
20260504014202 17 114 0.0 0.0 0.00 0.00 0.00 76 1008.9
20260504014103 18 114 0.0 0.0 0.00 0.00 0.00 76 1009.0
20260504014003 18 114 0.0 0.0 0.00 0.00 0.00 76 1009.0
20260504013903 18 114 0.0 0.0 0.00 0.00 0.00 75 1009.0
20260504013803 18 114 0.0 0.0 0.00 0.00 0.00 75 1009.0
20260504013702 18 114 0.0 0.0 0.00 0.00 0.00 75 1009.0
20260504013604 18 114 0.0 0.0 0.00 0.00 0.00 75 1009.0
20260504013505 18 114 0.0 0.0 0.00 0.00 0.00 75 1009.0
20260504013402 18 114 0.0 0.0 0.00 0.00 0.00 75 1009.0
20260504013302 18 114 0.0 0.0 0.00 0.00 0.00 75 1009.0
20260504013159 18 114 0.0 0.0 0.00 0.00 0.00 74 1009.0
20260504013057 18 114 0.0 0.0 0.00 0.00 0.00 74 1009.0
20260504012954 18 114 0.0 0.0 0.00 0.00 0.00 74 1009.1
20260504012851 18 114 0.0 0.0 0.00 0.00 0.00 74 1009.0
20260504012745 18 114 0.0 0.0 0.00 0.00 0.00 73 1009.0
20260504012639 18 114 0.0 0.0 0.00 0.00 0.00 73 1009.0
20260504012536 18 114 0.0 0.0 0.00 0.00 0.00 72 1009.0
20260504012437 18 114 0.0 0.0 0.00 0.00 0.00 72 1009.0
20260504012332 18 114 0.0 0.0 0.00 0.00 0.00 71 1009.0
20260504012229 18 114 0.0 0.0 0.00 0.00 0.00 71 1009.0
20260504012127 18 114 0.0 0.0 0.00 0.00 0.00 71 1008.9
20260504012025 18 114 0.0 0.0 0.00 0.00 0.00 71 1009.0
20260504011924 18 114 0.0 0.0 0.00 0.00 0.00 71 1008.9
20260504011825 18 114 0.0 0.0 0.00 0.00 0.00 71 1008.9
20260504011712 18 114 0.0 0.0 0.00 0.00 0.00 71 1008.9
20260504011610 19 114 0.0 0.0 0.00 0.00 0.00 71 1008.9
20260504011511 19 114 0.0 0.0 0.00 0.00 0.00 71 1008.9
20260504011410 19 114 0.0 0.0 0.00 0.00 0.00 71 1008.9
20260504011310 19 114 0.0 0.0 0.00 0.00 0.00 72 1008.9
20260504011209 19 114 0.0 0.0 0.00 0.00 0.00 71 1008.9
20260504011109 19 114 0.0 0.0 0.00 0.00 0.00 70 1008.9
20260504011009 19 114 0.0 0.0 0.00 0.00 0.00 70 1008.9
20260504010910 19 114 0.0 0.0 0.00 0.00 0.00 70 1008.8
20260504010810 19 114 0.0 0.0 0.00 0.00 0.00 68 1008.8
20260504010711 19 114 0.0 0.0 0.00 0.00 0.00 68 1008.7
20260504010612 19 114 0.0 0.0 0.00 0.00 0.00 68 1008.7
20260504010510 20 114 0.0 0.0 0.00 0.00 0.00 68 1008.7
20260504010411 20 114 0.0 0.0 0.00 0.00 0.00 68 1008.8
20260504010310 20 114 0.0 0.0 0.00 0.00 0.00 68 1008.8
20260504010210 20 114 0.0 0.0 0.00 0.00 0.00 68 1008.7
20260504010110 20 114 0.0 0.0 0.00 0.00 0.00 68 1008.7
20260504010010 20 114 0.0 0.0 0.00 0.00 0.00 68 1008.8
20260504005902 20 114 0.0 0.0 0.00 0.00 0.00 66 1008.8
20260504005802 20 114 0.0 0.0 0.00 0.00 0.00 66 1008.7
20260504005704 20 114 0.0 0.0 0.00 0.00 0.00 66 1008.8
20260504005603 20 114 0.0 0.0 0.00 0.00 0.00 66 1008.9
20260504005502 20 114 0.0 0.0 0.00 0.00 0.00 66 1008.9
20260504005403 20 114 0.0 0.0 0.00 0.00 0.00 66 1008.9
20260504005304 20 114 0.0 0.0 0.00 0.00 0.00 66 1008.9
20260504005203 20 114 0.0 0.0 0.00 0.00 0.00 66 1008.9
20260504005101 20 114 0.0 0.0 0.00 0.00 0.00 67 1008.9
20260504005004 20 114 0.0 0.0 0.00 0.00 0.00 67 1008.9
20260504004903 20 114 0.0 0.0 0.00 0.00 0.00 67 1008.8
20260504004802 20 114 0.0 0.0 0.00 0.00 0.00 67 1008.8
20260504004703 20 114 0.0 0.0 0.00 0.00 0.00 67 1008.8
20260504004602 20 114 0.0 0.0 0.00 0.00 0.00 67 1008.8
20260504004502 20 114 0.0 0.0 0.00 0.00 0.00 67 1008.9
20260504004403 20 114 0.0 0.0 0.00 0.00 0.00 67 1008.9
20260504004302 20 114 0.0 0.0 0.00 0.00 0.00 67 1009.0
20260504004203 20 114 0.0 0.0 0.00 0.00 0.00 67 1008.9
20260504004103 20 114 0.0 0.0 0.00 0.00 0.00 67 1008.9
20260504004006 20 114 0.0 0.0 0.00 0.00 0.00 66 1008.9
20260504003904 20 114 0.0 0.0 0.00 0.00 0.00 65 1008.9
20260504003803 20 114 0.0 0.0 0.00 0.00 0.00 65 1008.9
20260504003701 20 114 0.0 0.0 0.00 0.00 0.00 65 1008.9
20260504003604 21 114 0.0 0.0 0.00 0.00 0.00 65 1008.9
20260504003503 21 114 0.0 0.0 0.00 0.00 0.00 65 1008.9
20260504003404 21 114 0.0 0.0 0.00 0.00 0.00 65 1008.9
20260504003302 21 114 0.0 0.0 0.00 0.00 0.00 62 1008.9
20260504003202 21 114 0.0 0.0 0.00 0.00 0.00 62 1008.9
20260504003103 21 114 0.0 0.0 0.00 0.00 0.00 62 1008.9
20260504003005 21 114 0.0 0.0 0.00 0.00 0.00 62 1009.0
20260504002902 21 114 0.0 0.0 0.00 0.00 0.00 62 1008.9
20260504002802 21 114 0.0 0.0 0.00 0.00 0.00 62 1009.0
20260504002702 21 114 0.0 0.0 0.00 0.00 0.00 62 1008.9
20260504002604 21 114 0.0 0.0 0.00 0.00 0.00 63 1008.9
20260504002503 21 114 0.0 0.0 0.00 0.00 0.00 63 1009.0
20260504002402 21 114 0.0 0.0 0.00 0.00 0.00 60 1009.0
20260504002303 21 114 0.0 0.0 0.00 0.00 0.00 60 1009.0
20260504002204 21 114 0.0 0.0 0.00 0.00 0.00 59 1009.0
20260504002103 22 114 0.0 0.0 0.00 0.00 0.00 59 1009.1
20260504002003 22 114 0.0 0.0 0.00 0.00 0.00 61 1009.0
20260504001903 22 114 0.0 0.0 0.00 0.00 0.00 61 1009.0
20260504001803 22 114 0.0 0.0 0.00 0.00 0.00 60 1009.1
20260504001704 22 114 0.0 0.0 0.00 0.00 0.00 60 1009.0
20260504001604 22 114 0.0 0.0 0.00 0.00 0.00 60 1009.0
20260504001502 22 114 0.0 0.0 0.00 0.00 0.00 61 1009.1
20260504001402 22 114 0.0 0.0 0.00 0.00 0.00 62 1009.1
20260504001301 22 114 0.0 0.0 0.00 0.00 0.00 62 1009.0
20260504001200 22 114 0.0 0.0 0.00 0.00 0.00 62 1009.1
20260504001053 22 114 0.0 0.0 0.00 0.00 0.00 62 1009.0
20260504000953 22 114 0.0 0.0 0.00 0.00 0.00 62 1009.0
20260504000850 22 114 0.0 0.0 0.00 0.00 0.00 58 1009.0
20260504000751 22 114 0.0 0.0 0.00 0.00 0.00 58 1008.9
20260504000648 22 114 0.0 0.0 0.00 0.00 0.00 58 1009.0
20260504000548 23 114 0.0 0.0 0.00 0.00 0.00 57 1009.0
20260504000446 23 114 0.0 1.6 0.00 0.00 0.00 57 1009.0
20260504000338 23 114 0.0 1.6 0.00 0.00 0.00 57 1008.9
20260504000237 23 114 0.0 1.6 0.00 0.00 0.00 57 1009.0
20260504000136 23 114 0.0 1.6 0.00 0.00 0.00 57 1008.9
20260504000033 23 114 0.0 1.6 0.00 0.00 0.00 57 1009.0
20260503235932 23 114 0.0 1.6 0.00 0.00 0.00 57 1009.1
20260503235829 23 114 0.0 1.6 0.00 0.00 0.00 57 1009.1
20260503235726 23 114 0.0 3.2 0.00 0.00 0.00 56 1009.2
20260503235627 23 114 0.0 3.2 0.00 0.00 0.00 55 1009.1
20260503235523 23 114 0.0 3.2 0.00 0.00 0.00 55 1009.2
20260503235425 23 114 0.0 3.2 0.00 0.00 0.00 54 1009.2
20260503235318 23 114 0.0 3.2 0.00 0.00 0.00 54 1009.1
20260503235214 23 114 0.0 3.2 0.00 0.00 0.00 54 1009.2
20260503235114 23 114 0.0 3.2 0.00 0.00 0.00 55 1009.2
20260503235013 23 114 0.0 3.2 0.00 0.00 0.00 56 1009.2
20260503234908 23 114 1.6 3.2 0.00 0.00 0.00 56 1009.2
20260503234809 23 116 1.6 3.2 0.00 0.00 0.00 56 1009.2
20260503234702 23 134 0.0 3.2 0.00 0.00 0.00 56 1009.2
20260503234603 23 134 0.0 1.6 0.00 0.00 0.00 56 1009.2
20260503234502 23 110 0.0 1.6 0.00 0.00 0.00 57 1009.2
20260503234402 23 110 0.0 1.6 0.00 0.00 0.00 56 1009.1
20260503234303 23 110 0.0 1.6 0.00 0.00 0.00 56 1009.2
20260503234202 23 140 0.0 1.6 0.00 0.00 0.00 56 1009.2
20260503234103 23 233 0.0 1.6 0.00 0.00 0.00 56 1009.1
20260503234002 23 233 0.0 1.6 0.00 0.00 0.00 55 1009.2
20260503233902 23 233 0.0 1.6 0.00 0.00 0.00 55 1009.1
20260503233803 23 233 0.0 1.6 0.00 0.00 0.00 53 1009.1
20260503233702 23 233 0.0 1.6 0.00 0.00 0.00 53 1009.1
20260503233602 23 233 0.0 1.6 0.00 0.00 0.00 53 1009.1
20260503233502 23 233 0.0 1.6 0.00 0.00 0.00 53 1009.1
20260503233404 23 233 0.0 1.6 0.00 0.00 0.00 53 1009.1
20260503233302 23 235 0.0 1.6 0.00 0.00 0.00 53 1009.1
20260503233204 23 235 0.0 0.0 0.00 0.00 0.00 55 1009.1
20260503233103 23 235 0.0 1.6 0.00 0.00 0.00 55 1009.0
20260503233003 23 235 0.0 1.6 0.00 0.00 0.00 55 1009.0
20260503232902 23 235 0.0 1.6 0.00 0.00 0.00 55 1009.1
20260503232802 23 235 0.0 1.6 0.00 0.00 0.00 57 1009.1
20260503232703 23 235 0.0 1.6 0.00 0.00 0.00 57 1009.2
20260503232603 23 235 0.0 1.6 0.00 0.00 0.00 55 1009.2
20260503232503 23 235 0.0 1.6 0.00 0.00 0.00 56 1009.2
20260503232402 23 235 0.0 1.6 0.00 0.00 0.00 56 1009.2
20260503232305 23 235 0.0 1.6 0.00 0.00 0.00 56 1009.2
20260503232202 23 235 0.0 1.6 0.00 0.00 0.00 56 1009.2
20260503232102 23 235 0.0 1.6 0.00 0.00 0.00 56 1009.3
20260503232004 23 235 0.0 1.6 0.00 0.00 0.00 57 1009.2
20260503231902 23 235 0.0 3.2 0.00 0.00 0.00 57 1009.2
20260503231804 23 235 0.0 3.2 0.00 0.00 0.00 57 1009.2
20260503231704 24 204 0.0 3.2 0.00 0.00 0.00 55 1009.2
20260503231601 24 204 0.0 3.2 0.00 0.00 0.00 55 1009.3
20260503231503 24 204 0.0 3.2 0.00 0.00 0.00 56 1009.3
20260503231402 24 204 0.0 3.2 0.00 0.00 0.00 52 1009.3
20260503231303 24 204 0.0 3.2 0.00 0.00 0.00 52 1009.3
20260503231202 24 204 0.0 3.2 0.00 0.00 0.00 60 1009.4
20260503231103 24 204 0.0 3.2 0.00 0.00 0.00 54 1009.3
20260503231002 24 204 1.6 3.2 0.00 0.00 0.00 54 1009.4
20260503230902 24 204 1.6 3.2 0.00 0.00 0.00 56 1009.4
20260503230808 24 103 0.0 1.6 0.00 0.00 0.00 56 1009.4
20260503230704 24 103 0.0 1.6 0.00 0.00 0.00 56 1009.3
20260503230602 24 102 0.0 1.6 0.00 0.00 0.00 56 1009.4
20260503230502 24 102 0.0 1.6 0.00 0.00 0.00 55 1009.3
20260503230402 24 103 0.0 1.6 0.00 0.00 0.00 53 1009.3
20260503230304 24 103 0.0 1.6 0.00 0.00 0.00 57 1009.4
20260503230204 24 103 0.0 3.2 0.00 0.00 0.00 57 1009.4
20260503230004 24 100 0.0 3.2 0.00 0.00 0.00 56 1009.3
20260503225902 24 102 0.0 3.2 0.00 0.00 0.00 56 1009.2
20260503225802 24 102 0.0 3.2 0.00 0.00 0.00 56 1009.3
20260503225702 24 102 0.0 3.2 0.00 0.00 0.00 56 1009.2
20260503225603 24 102 0.0 3.2 0.00 0.00 0.00 56 1009.3
20260503225505 24 102 0.0 3.2 0.00 0.00 0.00 53 1009.3
20260503225402 24 102 0.0 3.2 0.00 0.00 0.00 53 1009.3
20260503225304 24 102 0.0 3.2 0.00 0.00 0.00 54 1009.4
20260503225201 25 313 0.0 3.2 0.00 0.00 0.00 54 1009.4
20260503225102 25 313 0.0 3.2 0.00 0.00 0.00 51 1009.4
20260503225002 25 313 0.0 3.2 0.00 0.00 0.00 51 1009.3
20260503224902 25 313 0.0 3.2 0.00 0.00 0.00 52 1009.4
20260503224804 25 310 0.0 3.2 0.00 0.00 0.00 52 1009.4
20260503224703 25 310 0.0 3.2 0.00 0.00 0.00 52 1009.5
20260503224602 24 310 0.0 3.2 0.00 0.00 0.00 54 1009.4
20260503224502 24 314 0.0 3.2 0.00 0.00 0.00 54 1009.5
20260503224404 24 314 0.0 3.2 0.00 0.00 0.00 54 1009.6
20260503224302 25 314 0.0 3.2 0.00 0.00 0.00 54 1009.5
20260503224202 25 314 1.6 3.2 0.00 0.00 0.00 54 1009.5
20260503224102 25 312 1.6 3.2 0.00 0.00 0.00 49 1009.6
20260503224005 25 323 0.0 3.2 0.00 0.00 0.00 49 1009.6
20260503223903 25 323 0.0 3.2 0.00 0.00 0.00 49 1009.6
20260503223802 25 323 0.0 3.2 0.00 0.00 0.00 49 1009.6
20260503223704 25 323 0.0 3.2 0.00 0.00 0.00 49 1009.6
20260503223604 25 323 1.6 3.2 0.00 0.00 0.00 50 1009.6
20260503223504 25 351 1.6 3.2 0.00 0.00 0.00 50 1009.6
20260503223403 25 262 0.0 1.6 0.00 0.00 0.00 52 1009.5
20260503223303 25 262 0.0 3.2 0.00 0.00 0.00 52 1009.6
20260503223205 25 262 0.0 3.2 0.00 0.00 0.00 52 1009.6
20260503223104 25 262 0.0 3.2 0.00 0.00 0.00 49 1009.5
20260503223004 25 262 0.0 3.2 0.00 0.00 0.00 49 1009.5
20260503222904 25 262 0.0 3.2 0.00 0.00 0.00 48 1009.5
20260503222803 25 262 0.0 3.2 0.00 0.00 0.00 46 1009.5
20260503222703 25 262 0.0 3.2 0.00 0.00 0.00 47 1009.5
20260503222603 25 262 0.0 3.2 0.00 0.00 0.00 47 1009.5
20260503222509 25 262 1.6 3.2 0.00 0.00 0.00 50 1009.5
20260503222404 25 252 0.0 3.2 0.00 0.00 0.00 50 1009.6
20260503222304 25 252 0.0 3.2 0.00 0.00 0.00 48 1009.6
20260503222204 25 252 0.0 3.2 0.00 0.00 0.00 48 1009.7
20260503222103 25 279 0.0 3.2 0.00 0.00 0.00 48 1009.8
20260503222004 25 279 0.0 3.2 0.00 0.00 0.00 48 1009.8
20260503221903 25 279 0.0 3.2 0.00 0.00 0.00 47 1009.8
20260503221803 25 279 1.6 3.2 0.00 0.00 0.00 47 1009.8
20260503221703 25 279 1.6 3.2 0.00 0.00 0.00 47 1009.8
20260503221603 25 289 0.0 3.2 0.00 0.00 0.00 47 1009.8
20260503221504 25 41 1.6 3.2 0.00 0.00 0.00 47 1009.8
20260503221404 25 102 0.0 1.6 0.00 0.00 0.00 47 1009.8
20260503221303 25 102 0.0 1.6 0.00 0.00 0.00 47 1009.9
20260503221205 25 102 0.0 1.6 0.00 0.00 0.00 47 1009.8
20260503221105 25 102 0.0 1.6 0.00 0.00 0.00 47 1009.8
20260503221005 25 102 0.0 1.6 0.00 0.00 0.00 53 1009.9
20260503220903 25 102 0.0 1.6 0.00 0.00 0.00 53 1009.9
20260503220806 25 102 0.0 1.6 0.00 0.00 0.00 53 1009.9
20260503220703 25 102 0.0 1.6 0.00 0.00 0.00 50 1009.9
20260503220603 25 102 0.0 3.2 0.00 0.00 0.00 50 1010.0
20260503220504 25 102 0.0 3.2 0.00 0.00 0.00 51 1010.0
20260503220403 25 102 0.0 3.2 0.00 0.00 0.00 51 1010.0
20260503220303 25 102 0.0 3.2 0.00 0.00 0.00 49 1010.1
20260503220203 25 102 0.0 3.2 0.00 0.00 0.00 49 1010.0
20260503220105 25 102 0.0 3.2 0.00 0.00 0.00 50 1009.9
20260503220004 25 102 0.0 3.2 0.00 0.00 0.00 50 1010.0
20260503215910 25 103 0.0 3.2 0.00 0.00 0.00 46 1010.1
20260503215803 25 103 1.6 3.2 0.00 0.00 0.00 50 1010.1
20260503215702 25 99 1.6 3.2 0.00 0.00 0.00 48 1010.0
20260503215603 25 99 1.6 3.2 0.00 0.00 0.00 48 1010.1
20260503215504 25 99 1.6 3.2 0.00 0.00 0.00 47 1009.9
20260503215404 25 94 1.6 3.2 0.00 0.00 0.00 48 1010.0
20260503215304 25 190 1.6 3.2 0.00 0.00 0.00 47 1010.0
20260503215205 25 190 1.6 3.2 0.00 0.00 0.00 49 1009.9
20260503215103 25 188 1.6 3.2 0.00 0.00 0.00 49 1009.9
20260503215006 25 265 1.6 3.2 0.00 0.00 0.00 53 1010.0
20260503214904 25 265 0.0 3.2 0.00 0.00 0.00 53 1009.9
20260503214803 25 264 0.0 3.2 0.00 0.00 0.00 51 1010.0
20260503214704 25 264 0.0 3.2 0.00 0.00 0.00 49 1009.9
20260503214603 25 264 0.0 3.2 0.00 0.00 0.00 47 1009.9
20260503214505 25 264 0.0 3.2 0.00 0.00 0.00 47 1009.9
20260503214403 25 264 1.6 3.2 0.00 0.00 0.00 45 1010.0
20260503214303 25 264 1.6 3.2 0.00 0.00 0.00 45 1009.9
20260503214203 25 264 1.6 3.2 0.00 0.00 0.00 43 1009.9
20260503214102 25 264 1.6 3.2 0.00 0.00 0.00 43 1009.9
20260503214005 25 264 1.6 3.2 0.00 0.00 0.00 45 1009.9
20260503213854 25 264 1.6 3.2 0.00 0.00 0.00 44 1009.9
20260503213752 25 264 1.6 3.2 0.00 0.00 0.00 46 1009.9
20260503213638 25 268 0.0 3.2 0.00 0.00 0.00 48 1010.0
20260503213535 25 268 1.6 3.2 0.00 0.00 0.00 48 1010.0
20260503213436 25 268 1.6 3.2 0.00 0.00 0.00 49 1010.0
20260503213330 25 268 1.6 3.2 0.00 0.00 0.00 49 1010.0
20260503213231 25 268 0.0 3.2 0.00 0.00 0.00 51 1010.1
20260503213127 25 268 0.0 3.2 0.00 0.00 0.00 51 1010.1
20260503213024 25 268 1.6 3.2 0.00 0.00 0.00 51 1010.2
20260503212922 25 268 1.6 3.2 0.00 0.00 0.00 51 1010.2
20260503212809 25 295 0.0 1.6 0.00 0.00 0.00 53 1010.2
20260503212705 25 295 0.0 1.6 0.00 0.00 0.00 51 1010.3
20260503212605 25 295 0.0 3.2 0.00 0.00 0.00 51 1010.2
20260503212504 25 295 0.0 3.2 0.00 0.00 0.00 52 1010.4
20260503212406 25 295 0.0 3.2 0.00 0.00 0.00 52 1010.4
20260503212305 25 295 0.0 3.2 0.00 0.00 0.00 52 1010.4
20260503212204 25 327 0.0 3.2 0.00 0.00 0.00 50 1010.4
20260503212104 25 327 0.0 3.2 0.00 0.00 0.00 47 1010.4
20260503212005 25 329 0.0 3.2 0.00 0.00 0.00 45 1010.4
20260503211904 25 329 0.0 3.2 0.00 0.00 0.00 45 1010.5
20260503211804 26 329 1.6 3.2 0.00 0.00 0.00 44 1010.4
20260503211705 26 327 1.6 3.2 0.00 0.00 0.00 46 1010.5
20260503211605 26 327 1.6 3.2 0.00 0.00 0.00 50 1010.6
20260503211505 26 147 0.0 3.2 0.00 0.00 0.00 50 1010.7
20260503211404 26 148 0.0 3.2 0.00 0.00 0.00 48 1010.7
20260503211304 26 148 0.0 3.2 0.00 0.00 0.00 49 1010.6
20260503211205 26 148 1.6 4.8 0.00 0.00 0.00 48 1010.6
20260503211106 26 148 1.6 4.8 0.00 0.00 0.00 46 1010.6
20260503211005 26 148 1.6 4.8 0.00 0.00 0.00 46 1010.6
20260503210904 26 162 1.6 4.8 0.00 0.00 0.00 42 1010.7
20260503210806 25 162 1.6 4.8 0.00 0.00 0.00 42 1010.7
20260503210704 25 162 0.0 4.8 0.00 0.00 0.00 44 1010.7
20260503210605 25 166 1.6 4.8 0.00 0.00 0.00 45 1010.6
20260503210504 25 165 1.6 4.8 0.00 0.00 0.00 45 1010.7
20260503210405 26 165 1.6 4.8 0.00 0.00 0.00 45 1010.7
20260503210304 26 164 1.6 4.8 0.00 0.00 0.00 45 1010.8
20260503210204 26 142 1.6 3.2 0.00 0.00 0.00 45 1010.8
20260503210104 26 247 0.0 3.2 0.00 0.00 0.00 44 1010.7
20260503210005 26 247 0.0 3.2 0.00 0.00 0.00 44 1010.7
20260503205904 26 247 1.6 3.2 0.00 0.00 0.00 44 1010.7
20260503205804 26 247 1.6 3.2 0.00 0.00 0.00 48 1010.7
20260503205705 26 247 3.2 3.2 0.00 0.00 0.00 46 1010.8
20260503205604 26 206 1.6 3.2 0.00 0.00 0.00 47 1010.8
20260503205504 26 333 0.0 3.2 0.00 0.00 0.00 47 1010.8
20260503205405 26 331 0.0 3.2 0.00 0.00 0.00 47 1010.7
20260503205304 26 331 1.6 3.2 0.00 0.00 0.00 47 1010.7
20260503205204 26 331 1.6 3.2 0.00 0.00 0.00 47 1010.8
20260503205103 26 330 1.6 3.2 0.00 0.00 0.00 49 1010.8
20260503205005 26 330 1.6 3.2 0.00 0.00 0.00 45 1010.8
20260503204904 26 164 1.6 3.2 0.00 0.00 0.00 45 1010.8
20260503204803 26 158 1.6 3.2 0.00 0.00 0.00 47 1010.8
20260503204704 26 137 1.6 3.2 0.00 0.00 0.00 47 1010.9
20260503204603 26 137 1.6 3.2 0.00 0.00 0.00 47 1010.9
20260503204504 26 223 1.6 3.2 0.00 0.00 0.00 47 1010.9
20260503204404 26 235 1.6 3.2 0.00 0.00 0.00 48 1010.9
20260503204303 25 234 1.6 3.2 0.00 0.00 0.00 50 1010.9
20260503204204 25 250 1.6 3.2 0.00 0.00 0.00 45 1011.0
20260503204104 25 250 1.6 3.2 0.00 0.00 0.00 49 1011.0
20260503204004 25 250 1.6 3.2 0.00 0.00 0.00 47 1011.0
20260503203903 25 259 1.6 3.2 0.00 0.00 0.00 47 1011.0
20260503203804 25 258 1.6 4.8 0.00 0.00 0.00 50 1011.1
20260503203703 25 259 1.6 4.8 0.00 0.00 0.00 50 1011.1
20260503203604 25 327 1.6 4.8 0.00 0.00 0.00 45 1011.1
20260503203503 25 0 1.6 4.8 0.00 0.00 0.00 45 1011.1
20260503203404 25 0 1.6 4.8 0.00 0.00 0.00 48 1011.1
20260503203304 25 0 1.6 4.8 0.00 0.00 0.00 48 1011.2
20260503203203 25 0 1.6 4.8 0.00 0.00 0.00 48 1011.2
20260503203103 25 0 1.6 4.8 0.00 0.00 0.00 48 1011.3
20260503203003 25 0 1.6 4.8 0.00 0.00 0.00 45 1011.3
20260503202904 25 0 1.6 4.8 0.00 0.00 0.00 45 1011.4
20260503202803 25 345 1.6 3.2 0.00 0.00 0.00 45 1011.3
20260503202703 25 124 1.6 3.2 0.00 0.00 0.00 45 1011.4
20260503202604 25 220 1.6 3.2 0.00 0.00 0.00 45 1011.3
20260503202503 25 220 1.6 3.2 0.00 0.00 0.00 53 1011.3
20260503202404 25 219 1.6 3.2 0.00 0.00 0.00 53 1011.3
20260503202304 25 109 0.0 3.2 0.00 0.00 0.00 50 1011.3
20260503202203 24 109 0.0 3.2 0.00 0.00 0.00 50 1011.3
20260503202104 24 109 0.0 3.2 0.00 0.00 0.00 50 1011.3
20260503202004 24 109 0.0 3.2 0.00 0.00 0.00 50 1011.3
20260503201903 24 109 1.6 3.2 0.00 0.00 0.00 50 1011.3
20260503201803 25 109 1.6 3.2 0.00 0.00 0.00 51 1011.4
20260503201703 26 109 1.6 3.2 0.00 0.00 0.00 47 1011.4
20260503201602 26 114 0.0 3.2 0.00 0.00 0.00 47 1011.4
20260503201504 26 114 0.0 3.2 0.00 0.00 0.00 47 1011.4
20260503201404 26 114 0.0 3.2 0.00 0.00 0.00 47 1011.4
20260503201303 26 114 0.0 3.2 0.00 0.00 0.00 49 1011.5
20260503201203 26 114 0.0 3.2 0.00 0.00 0.00 49 1011.5
20260503201103 26 114 1.6 3.2 0.00 0.00 0.00 51 1011.6
20260503201004 26 114 1.6 4.8 0.00 0.00 0.00 51 1011.5
20260503200902 26 114 1.6 4.8 0.00 0.00 0.00 46 1011.6
20260503200805 26 118 1.6 4.8 0.00 0.00 0.00 46 1011.6
20260503200656 26 351 0.0 4.8 0.00 0.00 0.00 46 1011.6
20260503200552 26 336 1.6 4.8 0.00 0.00 0.00 46 1011.6
20260503200450 26 336 0.0 4.8 0.00 0.00 0.00 46 1011.6
20260503200351 26 345 0.0 4.8 0.00 0.00 0.00 48 1011.6
20260503200242 26 345 1.6 4.8 0.00 0.00 0.00 49 1011.6
20260503200139 26 345 1.6 4.8 0.00 0.00 0.00 45 1011.7
20260503200034 26 345 1.6 4.8 0.00 0.00 0.00 45 1011.7
20260503195933 26 341 1.6 4.8 0.00 0.00 0.00 47 1011.8
20260503195830 26 341 1.6 4.8 0.00 0.00 0.00 47 1011.7
20260503195732 26 353 0.0 4.8 0.00 0.00 0.00 47 1011.8
20260503195632 26 350 0.0 4.8 0.00 0.00 0.00 45 1011.8
20260503195532 26 350 1.6 4.8 0.00 0.00 0.00 45 1011.8
20260503195425 26 350 1.6 4.8 0.00 0.00 0.00 50 1011.9
20260503195323 26 247 1.6 4.8 0.00 0.00 0.00 52 1011.9
20260503195224 26 268 0.0 4.8 0.00 0.00 0.00 51 1011.9
20260503195112 26 324 0.0 4.8 0.00 0.00 0.00 48 1011.9
20260503195005 26 324 1.6 4.8 0.00 0.00 0.00 48 1011.9
20260503194903 26 324 1.6 4.8 0.00 0.00 0.00 49 1011.9
20260503194802 26 326 3.2 4.8 0.00 0.00 0.00 49 1011.9
20260503194704 26 224 1.6 4.8 0.00 0.00 0.00 48 1012.0
20260503194557 26 261 1.6 4.8 0.00 0.00 0.00 46 1012.0
20260503194456 26 116 1.6 4.8 0.00 0.00 0.00 50 1012.0
20260503194355 26 118 1.6 4.8 0.00 0.00 0.00 51 1012.0
20260503194254 25 118 1.6 4.8 0.00 0.00 0.00 51 1011.9
20260503194152 25 299 1.6 4.8 0.00 0.00 0.00 47 1012.0
20260503194051 25 298 1.6 4.8 0.00 0.00 0.00 51 1012.0
20260503193932 25 298 1.6 4.8 0.00 0.00 0.00 51 1012.1
20260503193829 25 298 1.6 4.8 0.00 0.00 0.00 50 1012.0
20260503193723 25 298 1.6 4.8 0.00 0.00 0.00 59 1012.1
20260503193621 24 272 0.0 3.2 0.00 0.00 0.00 55 1012.1
20260503193511 24 275 0.0 3.2 0.00 0.00 0.00 55 1012.1
20260503193408 25 275 0.0 3.2 0.00 0.00 0.00 57 1012.1
20260503193303 25 275 0.0 3.2 0.00 0.00 0.00 57 1012.2
20260503193203 25 275 0.0 4.8 0.00 0.00 0.00 57 1012.2
20260503193104 25 275 1.6 4.8 0.00 0.00 0.00 56 1012.2
20260503193003 25 275 1.6 4.8 0.00 0.00 0.00 52 1012.2
20260503192902 25 275 0.0 4.8 0.00 0.00 0.00 52 1012.2
20260503192803 25 275 1.6 4.8 0.00 0.00 0.00 52 1012.2
20260503192702 25 275 1.6 4.8 0.00 0.00 0.00 47 1012.2